When you browse on this site, cookies collect data to enhance your experience and personalize the content and advertising you see.
Visit our Privacy Policy to learn more. By continuing to use the site, you agree to this use of cookies and data.
  • In France
  • List of Countries
  • For 7 days
  • Water Temperature
  • Satellite Maps
  • Weather Map
  • Weather Widgets
  • user-avatar
    Login

    Hourly Weather Uspenskiy

    Today, 23 May, Thursday

    Time Temperature Precipitation Wind Pressure Humidity
    00:00 +15°C° 0 mm 2 mps 736 mmHg 94%
    01:00 +14°C° 0 mm 2 mps 736 mmHg 94%
    02:00 +14°C° 0 mm 2 mps 735 mmHg 94%
    03:00 +14°C° 0 mm 2 mps 735 mmHg 94%
    04:00 +14°C° 0 mm 2 mps 735 mmHg 95%
    05:00 +15°C° 0 mm 2 mps 735 mmHg 95%
    06:00 +16°C° 0 mm 2 mps 735 mmHg 90%
    07:00 +18°C° 0 mm 2 mps 735 mmHg 85%
    08:00 +20°C° 0 mm 2 mps 735 mmHg 81%
    09:00 +21°C° 0.3 mm 2 mps 735 mmHg 74%
    10:00 +22°C° 0.3 mm 3 mps 734 mmHg 67%
    11:00 +24°C° 0.3 mm 3 mps 734 mmHg 61%
    12:00 +25°C° 0 mm 3 mps 734 mmHg 58%
    13:00 +25°C° 0 mm 3 mps 734 mmHg 55%
    14:00 +26°C° 0 mm 3 mps 734 mmHg 52%
    15:00 +26°C° 0.1 mm 2 mps 734 mmHg 56%
    16:00 +25°C° 0.1 mm 2 mps 734 mmHg 60%
    17:00 +25°C° 0.1 mm 2 mps 734 mmHg 65%
    18:00 +23°C° 0.8 mm 2 mps 734 mmHg 70%
    19:00 +20°C° 0.8 mm 2 mps 734 mmHg 76%
    20:00 +18°C° 0.8 mm 2 mps 734 mmHg 81%
    21:00 +17°C° 0.5 mm 2 mps 734 mmHg 84%
    22:00 +17°C° 0.5 mm 2 mps 734 mmHg 87%
    23:00 +16°C° 0.5 mm 2 mps 734 mmHg 90%

    Tomorrow, 24 May, Friday

    Time Temperature Precipitation Wind Pressure Humidity
    00:00 +16°C° 0.1 mm 2 mps 735 mmHg 91%
    01:00 +15°C° 0.1 mm 2 mps 735 mmHg 92%
    02:00 +15°C° 0.1 mm 2 mps 735 mmHg 94%
    03:00 +15°C° 0.3 mm 2 mps 735 mmHg 94%
    04:00 +15°C° 0.3 mm 2 mps 735 mmHg 95%
    05:00 +15°C° 0.3 mm 2 mps 736 mmHg 95%
    06:00 +16°C° 0.2 mm 2 mps 736 mmHg 93%
    07:00 +17°C° 0.2 mm 3 mps 736 mmHg 91%
    08:00 +17°C° 0.2 mm 3 mps 737 mmHg 89%
    09:00 +17°C° 0 mm 4 mps 737 mmHg 89%
    10:00 +17°C° 0 mm 4 mps 737 mmHg 88%
    11:00 +17°C° 0 mm 4 mps 737 mmHg 88%
    12:00 +18°C° 0 mm 4 mps 737 mmHg 86%
    13:00 +18°C° 0 mm 4 mps 737 mmHg 84%
    14:00 +18°C° 0 mm 4 mps 737 mmHg 82%
    15:00 +18°C° 0 mm 4 mps 737 mmHg 83%
    16:00 +18°C° 0 mm 3 mps 737 mmHg 83%
    17:00 +18°C° 0 mm 3 mps 737 mmHg 83%
    18:00 +17°C° 0 mm 3 mps 737 mmHg 86%
    19:00 +16°C° 0 mm 3 mps 737 mmHg 89%
    20:00 +14°C° 0 mm 3 mps 737 mmHg 92%
    21:00 +14°C° 0 mm 3 mps 737 mmHg 92%
    22:00 +13°C° 0 mm 3 mps 737 mmHg 93%
    23:00 +12°C° 0 mm 3 mps 737 mmHg 94%

    Day after tomorrow, 25 May, Saturday

    Time Temperature Precipitation Wind Pressure Humidity
    00:00 +12°C° 0 mm 3 mps 737 mmHg 94%
    01:00 +12°C° 0 mm 3 mps 737 mmHg 94%
    02:00 +12°C° 0 mm 3 mps 737 mmHg 95%
    03:00 +12°C° 0 mm 3 mps 737 mmHg 95%
    04:00 +12°C° 0 mm 3 mps 736 mmHg 94%
    05:00 +13°C° 0 mm 3 mps 736 mmHg 94%
    06:00 +13°C° 0.1 mm 3 mps 736 mmHg 93%
    07:00 +14°C° 0.1 mm 3 mps 736 mmHg 91%
    08:00 +16°C° 0.1 mm 3 mps 736 mmHg 90%
    09:00 +17°C° 0 mm 3 mps 736 mmHg 88%
    10:00 +18°C° 0 mm 3 mps 735 mmHg 86%
    11:00 +19°C° 0 mm 3 mps 735 mmHg 84%
    12:00 +20°C° 0.9 mm 3 mps 735 mmHg 81%
    13:00 +21°C° 0.9 mm 3 mps 735 mmHg 78%
    14:00 +22°C° 0.9 mm 3 mps 734 mmHg 75%
    15:00 +21°C° 0.5 mm 3 mps 734 mmHg 77%
    16:00 +21°C° 0.5 mm 3 mps 734 mmHg 78%
    17:00 +21°C° 0.5 mm 2 mps 733 mmHg 80%
    18:00 +19°C° 0.2 mm 2 mps 733 mmHg 84%
    19:00 +18°C° 0.2 mm 2 mps 733 mmHg 87%
    20:00 +16°C° 0.2 mm 2 mps 733 mmHg 91%
    21:00 +16°C° 0 mm 2 mps 733 mmHg 92%
    22:00 +15°C° 0 mm 2 mps 732 mmHg 93%
    23:00 +15°C° 0 mm 2 mps 732 mmHg 93%

    26 May, Sunday

    Time Temperature Precipitation Wind Pressure Humidity
    00:00 +14°C° 0 mm 2 mps 732 mmHg 93%
    01:00 +14°C° 0 mm 1 mps 732 mmHg 93%
    02:00 +14°C° 0 mm 1 mps 732 mmHg 93%
    03:00 +14°C° 0 mm 1 mps 732 mmHg 93%
    04:00 +15°C° 0 mm 2 mps 732 mmHg 93%
    05:00 +15°C° 0 mm 2 mps 732 mmHg 93%
    06:00 +16°C° 0 mm 2 mps 732 mmHg 90%
    07:00 +17°C° 0 mm 2 mps 733 mmHg 87%
    08:00 +18°C° 0 mm 3 mps 733 mmHg 84%
    09:00 +19°C° 0 mm 3 mps 733 mmHg 77%
    10:00 +20°C° 0 mm 4 mps 733 mmHg 69%
    11:00 +21°C° 0 mm 4 mps 733 mmHg 62%
    12:00 +22°C° 0 mm 4 mps 733 mmHg 60%
    13:00 +22°C° 0 mm 4 mps 733 mmHg 58%
    14:00 +22°C° 0 mm 4 mps 733 mmHg 56%
    15:00 +22°C° 0 mm 4 mps 733 mmHg 59%
    16:00 +21°C° 0 mm 4 mps 733 mmHg 62%
    17:00 +21°C° 0 mm 3 mps 733 mmHg 65%
    18:00 +19°C° 0 mm 3 mps 734 mmHg 70%
    19:00 +17°C° 0 mm 3 mps 734 mmHg 74%
    20:00 +14°C° 0 mm 3 mps 734 mmHg 78%
    21:00 +13°C° 0 mm 3 mps 734 mmHg 81%
    22:00 +12°C° 0 mm 3 mps 734 mmHg 85%
    23:00 +11°C° 0 mm 3 mps 734 mmHg 88%

    27 May, Monday

    Time Temperature Precipitation Wind Pressure Humidity
    00:00 +11°C° 0 mm 3 mps 734 mmHg 88%
    01:00 +11°C° 0 mm 3 mps 734 mmHg 89%
    02:00 +10°C° 0 mm 3 mps 734 mmHg 90%
    03:00 +11°C° 0 mm 4 mps 735 mmHg 86%
    04:00 +12°C° 0 mm 4 mps 735 mmHg 83%
    05:00 +13°C° 0 mm 5 mps 735 mmHg 80%
    06:00 +14°C° 0 mm 5 mps 735 mmHg 76%
    07:00 +15°C° 0 mm 6 mps 735 mmHg 72%
    08:00 +16°C° 0 mm 6 mps 735 mmHg 68%
    09:00 +17°C° 0 mm 6 mps 736 mmHg 64%
    10:00 +17°C° 0 mm 7 mps 736 mmHg 60%
    11:00 +18°C° 0 mm 7 mps 737 mmHg 55%
    12:00 +18°C° 0 mm 7 mps 737 mmHg 55%
    13:00 +18°C° 0 mm 7 mps 738 mmHg 55%
    14:00 +20°C° 0 mm 6 mps 738 mmHg 55%
    15:00 +20°C° 0 mm 5 mps 738 mmHg 58%
    16:00 +19°C° 0 mm 5 mps 738 mmHg 61%
    17:00 +19°C° 0 mm 4 mps 739 mmHg 64%
    18:00 +17°C° 0 mm 3 mps 739 mmHg 69%
    19:00 +15°C° 0 mm 2 mps 739 mmHg 74%
    20:00 +14°C° 0 mm 2 mps 740 mmHg 80%
    21:00 +13°C° 0 mm 2 mps 740 mmHg 81%
    22:00 +12°C° 0 mm 2 mps 740 mmHg 82%
    23:00 +12°C° 0 mm 2 mps 741 mmHg 84%

    28 May, Tuesday

    Time Temperature Precipitation Wind Pressure Humidity
    00:00 +11°C° 0 mm 1 mps 741 mmHg 84%
    01:00 +11°C° 0 mm 1 mps 741 mmHg 84%
    02:00 +11°C° 0 mm 1 mps 741 mmHg 84%
    03:00 +11°C° 0 mm 1 mps 742 mmHg 83%
    04:00 +12°C° 0 mm 1 mps 742 mmHg 82%
    05:00 +13°C° 0 mm 1 mps 742 mmHg 80%
    06:00 +14°C° 0 mm 2 mps 742 mmHg 77%
    07:00 +16°C° 0 mm 2 mps 742 mmHg 74%
    08:00 +18°C° 0 mm 3 mps 742 mmHg 72%
    09:00 +19°C° 0 mm 3 mps 742 mmHg 72%
    10:00 +20°C° 0 mm 4 mps 742 mmHg 73%
    11:00 +21°C° 0 mm 5 mps 742 mmHg 74%
    12:00 +22°C° 0.4 mm 4 mps 741 mmHg 75%
    13:00 +22°C° 0.4 mm 4 mps 741 mmHg 77%
    14:00 +24°C° 0.4 mm 3 mps 741 mmHg 79%
    15:00 +24°C° 0 mm 3 mps 741 mmHg 77%
    16:00 +24°C° 0 mm 3 mps 741 mmHg 76%
    17:00 +25°C° 0 mm 3 mps 740 mmHg 74%
    18:00 +24°C° 0 mm 3 mps 740 mmHg 79%
    19:00 +21°C° 0 mm 3 mps 740 mmHg 83%
    20:00 +20°C° 0 mm 4 mps 740 mmHg 87%
    21:00 +20°C° 0 mm 4 mps 740 mmHg 87%
    22:00 +19°C° 0 mm 4 mps 740 mmHg 86%
    23:00 +19°C° 0 mm 4 mps 740 mmHg 86%
    Show more